Location: *
(51.0333°S, 178.4667°E)
Time: 14:45:02
(UTC+00:00)

Cosmos 1536 - Pass Details

Date: 15 November 2019
Orbit: 541 x 558 km, 82.5° (Epoch: 13 December)

Event Time Altitude Azimuth Distance (km) Brightness Sun altitude
Exits shadow 09:31:19 24° 40° (NE) 1,168 3.9 -14.1°
Maximum altitude 09:33:05 37° 88° (E) 886 3.6 -14.2°
Drops below altitude 10° 09:36:50 10° 155° (SSE) 1,854 5.9 -14.6°
Sets 09:39:08 0° 163° (SSE) 2,755 7.0 -14.8°
